Regional Weather Roundup
Issued by NWS State College, PA

Home | Current Version | Previous Version | Text Only | Print | Product List | Glossary On
Versions: 1 2 3 4 5 6 7 8 9 10 11 12 13 14 15 16 17 18 19 20 21 22 23 24 25 26 27 28 29 30 31 32 33 34 35 36 37 38 39 40 41 42 43 44 45 46 47 48 49 50
000
ASUS41 KCTP 230503
RWRCTP

REGIONAL WEATHER ROUNDUP
NATIONAL WEATHER SERVICE STATE COLLEGE PA
100 AM EDT SAT MAY 23 2015

Note: "fair" indicates few or no clouds below 12,000 feet with no
significant weather and/or obstructions to visibility.

* = STATION THAT DOES NOT REPORT PRECIPITATION /E.G. RAIN...SNOW...ETC/
    THUNDER OR FOG.

PAZ002>004-007>009-013>016-020>023-029>032-230600-
WESTERN PENNSYLVANIA

CITY           SKY/WX    TMP DP  RH WIND       PRES   REMARKS
ERIE           CLEAR     40  33  76 S5        30.34R
MEADVILLE      PTCLDY    40  25  55 CALM      30.33R
FRANKLIN*      PTCLDY    37  23  56 SW6       30.34R
NEW CASTLE     FAIR      38  32  79 CALM      30.34F
BEAVER COUNTY  NOT AVBL
BUTLER*        CLEAR     37  28  70 NE3       30.34F
PITTSBURGH INT PTCLDY    48  27  44 CALM      30.32F
PITTSBURGH     CLEAR     48  16  27 NE3       30.32F
INDIANA*       CLEAR     39  32  75 CALM      30.37R
LATROBE        CLEAR     41  30  65 CALM      30.35S
WASHINGTON CO* CLEAR     39  34  81 CALM      30.35S
$$

PAZ004>006-010>012-017>019-024>028-033>037-041-042-045-046-049>053-230600-
CENTRAL PENNSYLVANIA

CITY           SKY/WX    TMP DP  RH WIND       PRES   REMARKS
BRADFORD       CLEAR     31  22  69 CALM      30.28R
DUBOIS         CLEAR     36  24  62 SW5       30.30R
CLEARFIELD     CLEAR     41  24  51 W6        30.31R
JOHNSTOWN      CLEAR     43  16  33 N6        30.31R
ALTOONA        PTCLDY    44  23  43 NW3       30.32R
STATE COLLEGE  CLEAR     46  24  42 W3        30.29S
WILLIAMSPORT   CLEAR     50  22  33 W8        30.26R
SELINSGROVE    CLEAR     52  25  35 W6        30.28R
FT INDIANTOWN  CLEAR     56  28  34 W8G20     30.26R
CAPITAL CITY   CLEAR     57  31  37 NW12      30.27R
HARRISBURG     CLEAR     57  30  35 NW12G23   30.26R
YORK           CLEAR     50  31  48 NW9       30.27R
$$

PAZ038>040-043-044-047-048-054-055-060>062-067>071-230600-
EASTERN PENNSYLVANIA

CITY           SKY/WX    TMP DP  RH WIND       PRES   REMARKS
SCRANTON       CLEAR     47  24  40 N10G18    30.25R
MOUNT POCONO   CLEAR     44  23  43 NW12G22   30.20R
ALLENTOWN      CLEAR     54  34  46 N13       30.23R
QUAKERTOWN*    CLEAR     55  32  41 NW5       30.22R
READING        CLEAR     57  29  34 NW15      30.23R
LANCASTER      CLEAR     55  30  38 NW9       30.24R
COATESVILLE    CLEAR     52  28  40 NW8       30.24R
POTTSTOWN      CLEAR     56  29  35 NW7       30.24R
BLUE BELL      CLEAR     57  34  41 CALM      30.21R
DOYLESTOWN     CLEAR     54  32  43 N6        30.20R
WILLOW GROVE   NOT AVBL
NORTH PHILA    CLEAR     59  32  36 NW6       30.22R
PHILADELPHIA   CLEAR     62  26  25 NW8       30.21R
$$


USA.gov is the U.S. government's official web portal to all federal, state and local government web resources and services.